Tracking 32136 objects as of 12-Nov-2025
HD Live streaming from Space Station
objects crossing your sky now

STARLINK-31338

Track STARLINK-31338 now!
10-day predictions
STARLINK-31338 is classified as:


NORAD ID: 59156
Int'l Code: 2024-044E
Perigee: 489.5 km
Apogee: 491.0 km
Inclination: 43.0 °
Period: 94.3 minutes
Semi major axis: 6861 km
RCS: Unknown
Launch date: March 4, 2024
Source: United States (US)
Launch site: AIR FORCE EASTERN TEST RANGE (AFETR)
Your satellite tracking list
Your tracking list is empty




NASA's NSSDC Master Catalog

Two Line Element Set (TLE):
1 59156U 24044E   25315.33336806  .00034971  00000-0  12754-2 0  9993
2 59156  43.0019  59.0970 0001086 264.2634  38.5643 15.27553347  5878
Source of the keplerian elements: AFSPC